Date Time,Air Temp,Sky Temp,Clarity,Light Level,Rain Sensor,Readings
2010-02-04 00:00:05,15.3,2.4,12.9,0.0,2.2,111
2010-02-04 00:05:05,15.3,2.6,12.7,0.0,2.1,111
2010-02-04 00:10:05,15.3,2.7,12.6,0.0,2.1,111
2010-02-04 00:15:05,15.3,2.7,12.6,0.0,2.1,112
2010-02-04 00:20:05,15.3,2.8,12.5,0.0,2.1,111
2010-02-04 00:25:05,15.3,2.7,12.6,0.0,2.1,111
2010-02-04 00:30:05,15.4,2.7,12.6,0.0,3.6,111
2010-02-04 00:35:05,15.3,2.8,12.6,0.0,2.9,111
2010-02-04 00:40:05,15.2,2.9,12.3,0.0,2.4,112
2010-02-04 00:45:05,15.2,2.3,12.8,0.0,3.4,111
2010-02-04 00:50:05,15.1,2.6,12.5,0.0,2.8,111
2010-02-04 00:55:05,15.1,2.8,12.3,0.0,2.4,111
2010-02-04 01:00:05,15.1,2.6,12.4,0.0,2.1,111
2010-02-04 01:05:05,15.1,2.5,12.6,0.0,1.9,111
2010-02-04 01:10:05,15.1,2.6,12.5,0.0,1.9,111
2010-02-04 01:15:05,15.1,2.2,12.9,0.0,1.9,111
2010-02-04 01:20:05,15.1,2.5,12.6,0.0,1.9,112
2010-02-04 01:25:05,15.1,2.4,12.7,0.0,2.0,112
2010-02-04 01:30:05,15.1,2.5,12.6,0.0,1.9,111
2010-02-04 01:35:05,15.1,2.7,12.5,0.0,1.9,111
2010-02-04 01:40:05,15.1,2.7,12.4,0.0,1.9,111
2010-02-04 01:45:05,15.2,2.5,12.6,0.0,2.0,111
2010-02-04 01:50:05,15.2,2.4,12.7,0.0,1.9,111
2010-02-04 01:55:05,15.2,2.4,12.8,0.0,1.9,111
2010-02-04 02:00:05,15.2,2.0,13.2,0.0,1.9,111
2010-02-04 02:05:05,15.2,2.1,13.1,0.0,2.0,112
2010-02-04 02:10:05,15.7,2.0,13.7,0.0,1.9,111
2010-02-04 02:15:05,15.2,2.1,13.1,0.0,1.9,111
2010-02-04 02:20:05,15.2,2.1,13.0,0.0,1.9,111
2010-02-04 02:25:05,15.1,1.6,13.5,0.0,2.1,110
2010-02-04 02:30:05,15.1,1.8,13.3,0.0,2.0,111
2010-02-04 02:35:05,15.1,1.6,13.5,0.0,1.9,112
2010-02-04 02:40:05,15.1,1.3,13.8,0.0,1.9,111
2010-02-04 02:45:05,15.1,1.4,13.8,0.0,1.8,110
2010-02-04 02:50:05,15.1,1.3,13.8,0.1,1.8,111
2010-02-04 02:55:05,15.2,1.6,13.6,0.1,1.8,112
2010-02-04 03:00:05,15.2,1.7,13.5,0.0,1.9,111
2010-02-04 03:05:05,15.3,2.1,13.1,0.0,2.2,111
2010-02-04 03:10:05,15.3,2.4,12.9,0.0,2.2,111
2010-02-04 03:15:05,15.3,1.7,13.6,0.0,2.0,111
2010-02-04 03:20:05,15.3,2.1,13.2,0.0,2.1,111
2010-02-04 03:25:05,15.3,2.8,12.5,0.0,2.4,111
2010-02-04 03:30:05,15.3,3.3,12.0,0.0,3.9,111
2010-02-04 03:35:05,15.3,4.1,11.1,0.0,7.8,112
2010-02-04 03:40:05,15.3,3.1,12.2,0.0,7.7,111
2010-02-04 03:45:05,15.3,3.7,11.6,0.0,8.1,111
2010-02-04 03:50:05,15.3,3.2,12.1,0.0,7.6,112
2010-02-04 03:55:05,15.2,3.2,12.0,0.0,5.7,111
2010-02-04 04:00:05,15.2,3.2,12.0,0.0,5.6,111
2010-02-04 04:05:05,15.2,3.5,11.6,0.0,6.0,111
2010-02-04 04:10:05,15.2,3.5,11.7,0.0,6.5,111
2010-02-04 04:15:05,15.1,3.6,11.5,0.0,3.0,111
2010-02-04 04:20:05,15.2,4.0,11.2,0.0,2.1,112
2010-02-04 04:25:05,15.4,4.1,11.3,0.0,1.9,111
2010-02-04 04:30:05,15.3,4.0,11.3,0.0,1.9,112
2010-02-04 04:35:05,15.3,4.3,11.0,0.0,2.0,111
2010-02-04 04:40:05,15.3,4.0,11.3,0.0,2.1,112
2010-02-04 04:45:05,15.3,3.6,11.7,0.0,2.4,112
2010-02-04 04:50:05,15.2,3.4,11.8,0.0,3.3,111
2010-02-04 04:55:05,15.2,3.9,11.3,0.0,2.7,112
2010-02-04 05:00:05,15.2,4.0,11.2,0.0,2.3,112
2010-02-04 05:05:05,15.2,4.1,11.1,0.0,2.0,111
2010-02-04 05:10:05,15.2,3.8,11.3,0.0,1.9,112
2010-02-04 05:15:05,15.2,3.8,11.4,0.0,1.9,111
2010-02-04 05:20:05,15.2,4.0,11.2,0.0,1.8,112
2010-02-04 05:25:05,15.2,3.8,11.4,0.0,1.9,112
2010-02-04 05:30:05,15.2,3.6,11.5,0.0,2.0,111
2010-02-04 05:35:05,15.1,3.5,11.6,0.0,1.9,111
2010-02-04 05:40:05,15.1,3.5,11.5,0.0,1.9,111
2010-02-04 05:45:05,15.1,3.5,11.5,0.0,1.9,111
2010-02-04 05:50:05,15.1,3.7,11.4,0.0,2.5,112
2010-02-04 05:55:05,15.1,3.8,11.2,0.0,4.0,111
2010-02-04 06:00:05,15.1,4.0,11.1,0.0,4.2,111
2010-02-04 06:05:05,15.1,4.2,10.8,0.0,2.8,112
2010-02-04 06:10:05,15.1,4.2,10.9,0.0,3.1,112
2010-02-04 06:15:05,15.1,5.2,9.9,0.0,5.4,112
2010-02-04 06:20:05,15.2,5.1,10.1,0.0,2.8,111
2010-02-04 06:25:05,15.2,4.0,11.2,0.0,2.4,111
2010-02-04 06:30:05,15.0,3.6,11.4,0.0,2.4,111
2010-02-04 06:35:05,14.9,4.0,10.9,0.0,2.3,112
2010-02-04 06:40:05,14.9,3.8,11.0,0.0,2.2,112
2010-02-04 06:45:05,14.9,3.8,11.1,0.1,2.1,111
2010-02-04 06:50:05,14.9,3.8,11.1,0.2,2.0,111
2010-02-04 06:55:05,14.9,3.7,11.2,0.4,2.1,112
2010-02-04 07:00:05,14.9,3.8,11.1,0.9,2.2,111
2010-02-04 07:05:05,14.9,3.9,11.1,1.6,2.1,112
2010-02-04 07:10:05,15.0,4.1,10.9,2.9,2.0,111
2010-02-04 07:15:05,15.0,4.3,10.8,5.7,1.9,112
2010-02-04 07:20:05,15.1,4.0,11.2,8.3,1.9,112
2010-02-04 07:25:05,15.1,3.9,11.3,15.7,1.9,111
2010-02-04 07:30:05,15.1,4.0,11.1,20.3,1.9,112
2010-02-04 07:35:05,15.1,3.9,11.3,23.8,1.9,111
2010-02-04 07:40:05,15.1,4.2,10.9,26.2,1.9,112
2010-02-04 07:45:05,15.2,4.0,11.2,29.0,1.9,112
2010-02-04 07:50:05,15.2,3.9,11.2,29.6,2.1,111
2010-02-04 07:55:05,15.2,4.0,11.2,30.0,2.0,112
2010-02-04 08:00:05,15.2,4.0,11.2,30.3,2.1,112
2010-02-04 08:05:05,15.2,3.8,11.5,30.6,2.0,111
2010-02-04 08:10:05,15.2,3.9,11.3,31.1,1.9,112
2010-02-04 08:15:05,15.2,4.0,11.2,31.2,2.0,111
2010-02-04 08:20:05,15.2,3.9,11.3,31.4,2.9,112
2010-02-04 08:25:05,15.2,4.7,10.5,31.8,2.2,111
2010-02-04 08:30:05,15.2,4.1,11.1,31.9,1.9,112
2010-02-04 08:35:05,15.2,4.0,11.3,32.0,2.0,112
2010-02-04 08:40:05,15.5,4.2,11.4,32.1,2.1,112
2010-02-04 08:45:05,15.3,4.1,11.2,32.1,2.2,111
2010-02-04 08:50:05,15.4,4.3,11.1,32.1,2.2,112
2010-02-04 08:55:05,15.4,4.0,11.4,32.1,2.2,112
2010-02-04 09:00:05,15.4,4.1,11.3,32.0,2.2,111
2010-02-04 09:05:05,15.4,4.1,11.3,31.8,2.2,112
2010-02-04 09:10:05,15.4,4.0,11.4,31.9,2.3,112
2010-02-04 09:15:05,15.4,4.0,11.4,32.0,2.8,111
2010-02-04 09:20:05,15.4,3.9,11.5,32.0,4.1,112
2010-02-04 09:25:05,15.3,3.6,11.7,31.9,3.6,111
2010-02-04 09:30:05,15.2,3.5,11.7,31.8,3.5,112
2010-02-04 09:35:05,15.1,4.0,11.2,31.9,2.6,111
2010-02-04 09:40:05,15.1,4.0,11.2,31.9,2.8,112
2010-02-04 09:45:05,15.1,3.7,11.4,32.0,2.6,111
2010-02-04 09:50:05,15.1,3.6,11.5,31.9,3.2,111
2010-02-04 09:55:05,15.1,2.4,12.7,31.7,5.0,112
2010-02-04 10:00:05,15.6,3.5,12.2,31.8,6.9,111
2010-02-04 10:05:05,15.1,3.0,12.0,31.8,6.3,111
2010-02-04 10:10:05,15.1,3.2,11.8,31.8,4.7,111
2010-02-04 10:15:05,15.0,2.8,12.2,31.9,4.6,111
2010-02-04 10:20:05,15.0,2.6,12.4,32.0,4.1,111
2010-02-04 10:25:05,15.0,3.4,11.6,31.8,5.4,111
2010-02-04 10:30:05,15.0,3.0,12.0,31.8,6.8,111
2010-02-04 10:35:05,15.0,3.5,11.5,31.8,6.8,112
2010-02-04 10:40:05,15.0,3.5,11.5,32.0,5.2,111
2010-02-04 10:45:05,15.0,3.4,11.6,32.0,3.8,111
2010-02-04 10:50:05,14.9,3.3,11.7,31.9,3.7,111
2010-02-04 10:55:05,14.9,3.1,11.9,32.0,2.9,112
2010-02-04 11:00:05,14.9,3.7,11.2,32.0,2.5,111
2010-02-04 11:05:05,14.9,3.0,11.9,32.0,2.5,111
2010-02-04 11:10:05,14.7,2.7,12.0,32.0,2.8,111
2010-02-04 11:15:05,14.9,2.9,12.0,32.1,2.5,111
2010-02-04 11:20:05,14.9,2.3,12.6,32.1,3.4,111
2010-02-04 11:25:05,14.9,2.2,12.7,32.2,5.0,111
2010-02-04 11:30:05,14.9,3.0,11.9,32.2,2.7,112
2010-02-04 11:35:05,14.9,2.1,12.7,32.2,3.5,111
2010-02-04 11:40:05,14.9,1.7,13.2,32.3,8.8,111
2010-02-04 11:45:05,14.9,2.1,12.8,32.2,7.2,111
2010-02-04 11:50:05,14.8,2.5,12.4,32.2,6.8,111
2010-02-04 11:55:05,14.8,2.1,12.7,32.3,3.5,111
2010-02-04 12:00:05,14.7,2.5,12.3,32.2,2.5,112
2010-02-04 12:05:05,14.7,2.1,12.6,32.3,2.0,111
2010-02-04 12:10:05,14.8,1.2,13.6,32.4,1.8,110
2010-02-04 12:15:05,14.9,0.2,14.7,32.4,1.9,112
2010-02-04 12:20:05,15.0,0.1,14.9,32.5,2.1,111
2010-02-04 12:25:05,15.1,-0.2,15.3,32.4,2.2,111
2010-02-04 12:30:05,15.1,0.0,15.1,32.4,2.2,111
2010-02-04 12:35:05,15.1,-0.1,15.2,32.4,2.2,112
2010-02-04 12:40:05,15.1,-0.3,15.4,32.4,2.2,112
2010-02-04 12:45:05,15.1,-0.5,15.7,32.4,2.1,112
2010-02-04 12:50:05,15.2,-0.9,16.1,32.5,2.1,111
2010-02-04 12:55:05,15.2,-0.8,16.0,32.5,2.2,112
2010-02-04 13:00:05,15.2,-1.0,16.2,32.5,2.2,112
2010-02-04 13:05:05,15.6,-0.4,15.9,32.5,2.2,111
2010-02-04 13:10:05,15.4,-0.9,16.3,32.5,2.2,112
2010-02-04 13:15:05,15.4,-0.9,16.3,32.5,2.3,112
2010-02-04 13:20:05,15.5,-1.7,17.1,32.5,2.3,111
2010-02-04 13:25:05,15.5,-1.6,17.2,32.5,2.3,112
2010-02-04 13:30:05,15.6,-1.3,16.9,32.5,2.3,111
2010-02-04 13:35:05,15.7,-1.6,17.3,32.5,2.3,112
2010-02-04 13:40:05,15.6,-1.5,17.2,32.5,2.3,112
2010-02-04 13:45:05,15.7,-2.0,17.7,32.5,2.3,111
2010-02-04 13:50:05,15.9,-2.8,18.7,32.5,2.4,112
2010-02-04 13:55:05,16.3,-3.7,20.0,32.5,2.5,112
2010-02-04 14:00:05,18.8,-6.2,25.0,32.6,2.3,111
2010-02-04 14:05:05,20.0,-7.1,27.1,32.5,2.3,112
2010-02-04 14:10:05,20.6,-8.2,28.7,32.5,2.3,111
2010-02-04 14:15:05,20.7,-7.0,27.7,32.5,2.2,112
2010-02-04 14:20:05,20.9,-4.4,25.3,32.5,2.2,112
2010-02-04 14:25:05,20.8,-4.6,25.4,32.5,2.2,111
2010-02-04 14:30:05,21.0,-6.6,27.6,32.5,2.2,112
2010-02-04 14:35:05,21.2,-7.7,28.9,32.5,2.2,111
2010-02-04 14:40:05,21.2,-7.6,28.8,32.5,2.2,112
2010-02-04 14:45:05,20.8,-4.7,25.6,32.5,2.2,111
2010-02-04 14:50:05,20.8,-4.2,25.0,32.4,2.3,112
2010-02-04 14:55:05,20.8,-3.1,23.9,32.4,2.3,112
2010-02-04 15:00:05,20.8,-2.6,23.4,32.4,2.3,112
2010-02-04 15:05:05,20.8,-2.2,23.0,32.4,2.3,111
2010-02-04 15:10:05,20.9,-2.4,23.3,32.4,2.3,112
2010-02-04 15:15:05,20.9,-2.6,23.5,32.4,2.3,111
2010-02-04 15:20:05,21.0,-2.6,23.6,32.4,2.3,112
2010-02-04 15:25:05,21.1,-3.3,24.4,32.4,2.3,112
2010-02-04 15:30:05,21.1,-3.1,24.3,32.4,2.3,111
2010-02-04 15:35:05,20.8,-3.1,23.9,32.4,2.3,112
2010-02-04 15:40:05,21.1,-3.7,24.8,32.4,2.3,112
2010-02-04 15:45:05,21.1,-3.8,24.9,32.3,2.3,112
2010-02-04 15:50:05,21.0,-3.3,24.3,32.3,2.4,111
2010-02-04 15:55:05,20.9,-2.2,23.1,32.2,2.4,112
2010-02-04 16:00:05,20.8,-2.1,22.9,32.1,2.4,111
2010-02-04 16:05:05,20.8,-1.9,22.7,32.0,2.3,112
2010-02-04 16:10:05,20.8,-2.3,23.0,32.0,2.3,112
2010-02-04 16:15:05,20.6,-2.0,22.6,31.9,2.3,111
2010-02-04 16:20:05,20.6,-2.1,22.7,31.9,2.3,112
2010-02-04 16:25:05,20.5,-2.2,22.7,31.7,2.3,111
2010-02-04 16:30:05,20.5,-2.1,22.5,31.6,2.3,111
2010-02-04 16:35:05,20.4,-2.3,22.6,31.4,2.2,112
2010-02-04 16:40:05,20.4,-2.4,22.8,31.2,2.2,112
2010-02-04 16:45:05,20.4,-2.4,22.8,31.0,2.2,111
2010-02-04 16:50:05,20.5,-2.3,22.8,30.6,2.3,112
2010-02-04 16:55:05,20.4,-2.2,22.5,30.1,2.3,111
2010-02-04 17:00:05,20.4,-2.1,22.5,29.2,2.3,112
2010-02-04 17:05:05,20.4,-2.0,22.5,28.0,2.3,111
2010-02-04 17:10:05,20.5,-2.6,23.1,26.8,2.3,112
2010-02-04 17:15:05,20.5,-5.1,25.6,25.2,2.2,112
2010-02-04 17:20:05,20.4,-10.6,30.9,22.7,2.3,111
2010-02-04 17:25:05,20.1,-13.4,33.6,18.5,2.3,112
2010-02-04 17:30:05,19.9,-14.3,34.2,13.4,2.3,112
2010-02-04 17:35:05,19.7,-14.4,34.1,8.7,2.3,111
2010-02-04 17:40:05,19.7,-14.8,34.4,4.9,2.3,112
2010-02-04 17:45:05,19.5,-14.5,34.0,2.5,2.3,112
2010-02-04 17:50:05,19.4,-14.6,34.0,1.2,2.4,111
2010-02-04 17:55:05,19.4,-14.0,33.3,0.6,2.4,111
2010-02-04 18:00:05,19.3,-13.0,32.3,0.3,2.6,112
2010-02-04 18:05:05,19.2,-12.1,31.3,0.2,2.6,111
2010-02-04 18:10:05,19.2,-11.6,30.8,0.1,2.6,112
2010-02-04 18:15:05,19.3,-11.0,30.2,0.1,2.6,111
2010-02-04 18:20:05,19.3,-8.2,27.5,0.1,2.7,112
2010-02-04 18:25:05,19.4,-2.9,22.3,0.1,2.5,112
2010-02-04 18:30:05,19.6,-2.2,21.8,0.1,2.3,111
2010-02-04 18:35:05,19.7,-1.7,21.4,0.1,2.3,112
2010-02-04 18:40:05,19.8,-1.9,21.7,0.1,2.3,111
2010-02-04 18:45:05,19.6,-2.6,22.1,0.1,2.3,112
2010-02-04 18:50:05,19.9,-2.5,22.4,0.1,2.3,111
2010-02-04 18:55:05,20.0,-3.0,23.0,0.1,2.3,112
2010-02-04 19:00:05,19.9,-7.6,27.5,0.1,2.3,111
2010-02-04 19:05:05,19.4,-8.0,27.5,0.1,2.3,112
2010-02-04 19:10:05,19.0,-4.0,23.0,0.1,2.3,112
2010-02-04 19:15:05,18.6,-2.8,21.3,0.1,2.3,111
2010-02-04 19:20:05,18.9,-2.2,21.0,0.1,2.3,112
2010-02-04 19:25:05,18.9,-1.8,20.7,0.1,2.3,111
2010-02-04 19:30:05,19.0,-1.9,20.9,0.1,2.3,112
2010-02-04 19:35:05,19.0,-1.9,20.9,0.1,2.3,112
2010-02-04 19:40:05,19.0,-1.9,21.0,0.1,2.3,111
2010-02-04 19:45:05,19.3,-2.0,21.3,0.1,2.3,112
2010-02-04 19:50:05,19.1,-3.9,23.0,0.1,2.3,112
2010-02-04 19:55:05,19.1,-3.5,22.5,0.1,2.2,111
2010-02-04 20:00:05,19.1,-3.0,22.2,0.1,2.3,112
2010-02-04 20:05:05,19.1,-3.4,22.5,0.1,2.3,112
2010-02-04 20:10:05,19.1,-5.3,24.4,0.0,2.3,111
2010-02-04 20:15:05,19.1,-5.8,24.9,0.1,2.3,112
2010-02-04 20:20:05,19.2,-4.5,23.7,0.1,2.3,112
2010-02-04 20:25:05,19.6,-5.5,25.1,0.1,2.4,111
2010-02-04 20:30:05,19.7,-5.3,25.0,0.1,2.4,111
2010-02-04 20:35:05,19.7,-7.5,27.2,0.1,2.3,112
2010-02-04 20:40:05,19.7,-3.9,23.6,0.1,2.3,111
2010-02-04 20:45:05,19.7,-2.1,21.8,0.1,2.3,112
2010-02-04 20:50:05,19.8,-1.5,21.2,0.1,2.3,112
2010-02-04 20:55:05,19.8,-1.7,21.6,0.1,2.3,111
2010-02-04 21:00:05,19.9,-2.0,21.9,0.1,2.3,112
2010-02-04 21:05:05,19.8,-1.8,21.6,0.1,2.3,111
2010-02-04 21:10:05,19.8,-1.8,21.7,0.1,2.3,112
2010-02-04 21:15:05,19.9,-1.2,21.1,0.1,2.3,112
2010-02-04 21:20:05,19.9,-1.5,21.4,0.1,2.3,112
2010-02-04 21:25:05,19.9,-1.8,21.7,0.1,2.3,111
2010-02-04 21:30:05,19.8,-1.4,21.2,0.1,2.3,112
2010-02-04 21:35:05,20.0,-1.3,21.3,0.1,2.3,112
2010-02-04 21:40:05,20.1,-1.3,21.4,0.1,2.3,111
2010-02-04 21:45:05,20.1,-1.8,21.9,0.1,2.4,112
2010-02-04 21:50:05,20.1,-1.6,21.7,0.1,2.4,111
2010-02-04 21:55:05,20.0,-2.5,22.5,0.1,2.3,112
2010-02-04 22:00:05,19.9,-2.9,22.8,0.1,2.3,111
2010-02-04 22:05:05,19.9,-3.2,23.1,0.1,2.3,112
2010-02-04 22:10:05,19.9,-2.5,22.3,0.1,2.3,112
2010-02-04 22:15:05,19.8,-2.1,21.9,0.1,2.3,112
2010-02-04 22:20:05,19.9,-1.8,21.7,0.1,2.4,111
2010-02-04 22:25:05,20.1,-1.7,21.8,0.1,2.4,112
2010-02-04 22:30:05,20.1,-1.7,21.8,0.1,2.4,111
2010-02-04 22:35:05,20.2,-1.8,21.9,0.0,2.4,112
2010-02-04 22:40:05,20.2,-1.1,21.3,0.1,2.3,112
2010-02-04 22:45:05,20.3,-1.3,21.6,0.1,2.8,112
2010-02-04 22:50:05,20.3,-1.9,22.2,0.0,2.3,111
2010-02-04 22:55:05,18.8,0.3,18.5,0.0,2.3,112
2010-02-04 23:00:05,16.3,0.1,16.2,0.0,2.5,112
2010-02-04 23:05:05,15.5,0.1,15.4,0.1,2.3,112
2010-02-04 23:10:05,15.1,0.2,14.9,0.0,2.2,111
2010-02-04 23:15:05,15.0,0.8,14.2,0.0,2.0,111
2010-02-04 23:20:05,15.0,0.9,14.1,0.0,1.9,112
2010-02-04 23:25:05,15.0,0.8,14.1,0.0,1.9,110
2010-02-04 23:30:05,14.9,1.1,13.8,0.0,1.9,111
2010-02-04 23:35:05,15.0,0.8,14.2,0.0,4.5,111
2010-02-04 23:40:05,14.8,0.4,14.3,0.0,7.7,112
2010-02-04 23:45:05,14.5,2.6,11.9,0.0,11.0,111
2010-02-04 23:50:05,14.7,7.3,7.4,0.0,26.4,111
2010-02-04 23:55:05,14.2,7.5,6.7,0.0,23.1,111
